This is the latest recevied weather packets stored in our database for station/object PA5MB-15. If no packets are shown the sender has not sent any weather packets the latest 10 day(s).
| Time | Temp. | Humidity | Pressure | Rain* | Wind** | Luminosity | Snow |
|---|---|---|---|---|---|---|---|
| 1777767929 | 14.44° C | 98% | 1013.5 hPa | 0 mm | - | 0 W/m² | - |
| 1777767637 | 14.44° C | 98% | 1013.5 hPa | 0 mm | - | 0 W/m² | - |
| 1777767336 | 14.44° C | 98% | 1013.5 hPa | 0 mm | - | 0 W/m² | - |
| 1777767032 | 14.44° C | 98% | 1013.4 hPa | 0 mm | - | 0 W/m² | - |
| 1777766745 | 14.44° C | 98% | 1013.4 hPa | 0 mm | - | 0 W/m² | - |
| 1777766432 | 14.44° C | 98% | 1013.4 hPa | 0 mm | - | 0 W/m² | - |
| 1777766136 | 14.44° C | 98% | 1013.4 hPa | 0 mm | - | 0 W/m² | - |
| 1777765832 | 14.44° C | 98% | 1013.5 hPa | 0 mm | - | 0 W/m² | - |
| 1777765532 | 14.44° C | 98% | 1013.6 hPa | 0.25 mm | - | 0 W/m² | - |
| 1777765234 | 14.44° C | 98% | 1013.6 hPa | 0.25 mm | - | 0 W/m² | - |
| 1777764934 | 14.44° C | 98% | 1013.7 hPa | 0.25 mm | - | 0 W/m² | - |
| 1777764632 | 14.44° C | 98% | 1013.9 hPa | 0.76 mm | - | 0 W/m² | - |
| 1777764332 | 14.44° C | 98% | 1014 hPa | 1.27 mm | - | 0 W/m² | - |
| 1777764026 | 14.44° C | 98% | 1013.9 hPa | 1.27 mm | - | 0 W/m² | - |
| 1777763732 | 14.44° C | 98% | 1013.9 hPa | 1.52 mm | - | 0 W/m² | - |
| 1777763434 | 14.44° C | 98% | 1013.9 hPa | 2.03 mm | - | 0 W/m² | - |
| 1777763124 | 14.44° C | 98% | 1013.9 hPa | 2.03 mm | - | 0 W/m² | - |
| 1777762821 | 14.44° C | 98% | 1014 hPa | 2.03 mm | - | 0 W/m² | - |
| 1777762534 | 14.44° C | 98% | 1014.1 hPa | 2.03 mm | - | 0 W/m² | - |
| 1777762247 | 14.44° C | 98% | 1014.2 hPa | 2.03 mm | - | 0 W/m² | - |
| 1777761957 | 14.44° C | 98% | 1014.1 hPa | 1.78 mm | - | 0 W/m² | - |
| 1777761632 | 14.44° C | 98% | 1014.1 hPa | 1.78 mm | - | 0 W/m² | - |
| 1777761335 | 14.44° C | 98% | 1013.9 hPa | 1.78 mm | - | 0 W/m² | - |
| 1777761032 | 14.44° C | 98% | 1014 hPa | 1.27 mm | - | 0 W/m² | - |
| 1777760734 | 14.44° C | 97% | 1014.6 hPa | 0.76 mm | - | 0 W/m² | - |
* Rain latest hour (hover to see other rain measurements)
** Current wind speed in m/s (hover to see current wind gust speed)